owner,sensor,date,latitude,longitude,vertical_datum,sea_water_practical_salinity,qcFlag 
DISL,ioos:station:DISL:PPTA:1,2017-09-01T00:00:00Z,30.2791,-87.5561,1.378,12.59,1111122 
DISL,ioos:station:DISL:PPTA:1,2017-09-01T00:30:00Z,30.2791,-87.5561,1.362,12.48,1111122 
DISL,ioos:station:DISL:PPTA:1,2017-09-01T01:00:00Z,30.2791,-87.5561,1.35,13.19,1111122 
DISL,ioos:station:DISL:PPTA:1,2017-09-01T01:30:00Z,30.2791,-87.5561,1.355,12.49,1111122 
DISL,ioos:station:DISL:PPTA:1,2017-09-01T02:00:00Z,30.2791,-87.5561,1.392,12.09,1111122 
DISL,ioos:station:DISL:PPTA:1,2017-09-01T02:30:00Z,30.2791,-87.5561,1.377,13.31,1111122 
DISL,ioos:station:DISL:PPTA:1,2017-09-01T03:00:00Z,30.2791,-87.5561,1.403,12.12,1111122 
DISL,ioos:station:DISL:PPTA:1,2017-09-01T03:30:00Z,30.2791,-87.5561,1.405,12.09,1111122 
DISL,ioos:station:DISL:PPTA:1,2017-09-01T04:00:00Z,30.2791,-87.5561,1.426,11.83,1111122 
DISL,ioos:station:DISL:PPTA:1,2017-09-01T04:30:00Z,30.2791,-87.5561,1.389,13.46,1111122 
DISL,ioos:station:DISL:PPTA:1,2017-09-01T05:00:00Z,30.2791,-87.5561,1.384,13.19,1111122 
DISL,ioos:station:DISL:PPTA:1,2017-09-01T05:30:00Z,30.2791,-87.5561,1.407,12.99,1111122 
DISL,ioos:station:DISL:PPTA:1,2017-09-01T06:00:00Z,30.2791,-87.5561,1.427,12.65,1111122 
DISL,ioos:station:DISL:PPTA:1,2017-09-01T06:30:00Z,30.2791,-87.5561,1.445,12.89,1111122 
DISL,ioos:station:DISL:PPTA:1,2017-09-01T07:00:00Z,30.2791,-87.5561,1.472,12.59,1111122 
DISL,ioos:station:DISL:PPTA:1,2017-09-01T07:30:00Z,30.2791,-87.5561,1.486,11.93,1111122 
DISL,ioos:station:DISL:PPTA:1,2017-09-01T08:00:00Z,30.2791,-87.5561,1.496,12.78,1111122 
DISL,ioos:station:DISL:PPTA:1,2017-09-01T08:30:00Z,30.2791,-87.5561,1.5,12.7,1111122 
DISL,ioos:station:DISL:PPTA:1,2017-09-01T09:00:00Z,30.2791,-87.5561,1.509,13.44,1111122 
DISL,ioos:station:DISL:PPTA:1,2017-09-01T09:30:00Z,30.2791,-87.5561,1.501,17.23,1111122 
DISL,ioos:station:DISL:PPTA:1,2017-09-01T10:00:00Z,30.2791,-87.5561,1.509,20.18,1111122 
DISL,ioos:station:DISL:PPTA:1,2017-09-01T10:30:00Z,30.2791,-87.5561,1.525,21.13,1111122 
DISL,ioos:station:DISL:PPTA:1,2017-09-01T11:00:00Z,30.2791,-87.5561,1.514,20.61,1111122 
DISL,ioos:station:DISL:PPTA:1,2017-09-01T11:30:00Z,30.2791,-87.5561,1.513,21.92,1111122 
DISL,ioos:station:DISL:PPTA:1,2017-09-01T12:00:00Z,30.2791,-87.5561,1.513,22.25,1111122 
DISL,ioos:station:DISL:PPTA:1,2017-09-01T12:30:00Z,30.2791,-87.5561,1.524,17.53,1111122 
DISL,ioos:station:DISL:PPTA:1,2017-09-01T13:00:00Z,30.2791,-87.5561,1.547,11.56,1111122 
DISL,ioos:station:DISL:PPTA:1,2017-09-01T13:30:00Z,30.2791,-87.5561,1.552,12.72,1111122 
DISL,ioos:station:DISL:PPTA:1,2017-09-01T14:00:00Z,30.2791,-87.5561,1.524,22.18,1111122 
DISL,ioos:station:DISL:PPTA:1,2017-09-01T14:30:00Z,30.2791,-87.5561,1.513,13.96,1111122 
DISL,ioos:station:DISL:PPTA:1,2017-09-01T15:00:00Z,30.2791,-87.5561,1.509,17.47,1111122 
DISL,ioos:station:DISL:PPTA:1,2017-09-01T15:30:00Z,30.2791,-87.5561,1.474,13.4,1111122 
DISL,ioos:station:DISL:PPTA:1,2017-09-01T16:00:00Z,30.2791,-87.5561,1.478,15.4,1111122 
DISL,ioos:station:DISL:PPTA:1,2017-09-01T16:30:00Z,30.2791,-87.5561,1.451,12.68,1111122 
DISL,ioos:station:DISL:PPTA:1,2017-09-01T17:00:00Z,30.2791,-87.5561,1.43,12.49,1111122 
DISL,ioos:station:DISL:PPTA:1,2017-09-01T17:30:00Z,30.2791,-87.5561,1.423,13.2,1111122 
DISL,ioos:station:DISL:PPTA:1,2017-09-01T18:00:00Z,30.2791,-87.5561,1.406,13.2,1111122 
DISL,ioos:station:DISL:PPTA:1,2017-09-01T18:30:00Z,30.2791,-87.5561,1.381,13.17,1111122 
DISL,ioos:station:DISL:PPTA:1,2017-09-01T19:00:00Z,30.2791,-87.5561,1.355,12.83,1111122 
DISL,ioos:station:DISL:PPTA:1,2017-09-01T19:30:00Z,30.2791,-87.5561,1.352,12.84,1111122 
DISL,ioos:station:DISL:PPTA:1,2017-09-01T20:00:00Z,30.2791,-87.5561,1.352,12.14,1111122 
DISL,ioos:station:DISL:PPTA:1,2017-09-01T20:30:00Z,30.2791,-87.5561,1.342,11.4,1111122 
DISL,ioos:station:DISL:PPTA:1,2017-09-01T21:00:00Z,30.2791,-87.5561,1.354,11.35,1111122 
DISL,ioos:station:DISL:PPTA:1,2017-09-01T21:30:00Z,30.2791,-87.5561,1.33,11.48,1111122 
DISL,ioos:station:DISL:PPTA:1,2017-09-01T22:00:00Z,30.2791,-87.5561,1.311,11.93,1111122 
DISL,ioos:station:DISL:PPTA:1,2017-09-01T22:30:00Z,30.2791,-87.5561,1.288,11.87,1111122 
DISL,ioos:station:DISL:PPTA:1,2017-09-01T23:00:00Z,30.2791,-87.5561,1.306,11.93,1111122 
DISL,ioos:station:DISL:PPTA:1,2017-09-01T23:30:00Z,30.2791,-87.5561,1.302,11.6,1111122 
DISL,ioos:station:DISL:PPTA:1,2017-09-02T00:00:00Z,30.2791,-87.5561,1.309,11.43,1111122 
DISL,ioos:station:DISL:PPTA:1,2017-09-02T00:30:00Z,30.2791,-87.5561,1.319,11.68,1111122 
DISL,ioos:station:DISL:PPTA:1,2017-09-02T01:00:00Z,30.2791,-87.5561,1.31,11.5,1111122 
DISL,ioos:station:DISL:PPTA:1,2017-09-02T01:30:00Z,30.2791,-87.5561,1.324,11.88,1111122 
DISL,ioos:station:DISL:PPTA:1,2017-09-02T02:00:00Z,30.2791,-87.5561,1.345,11.2,1111122 
DISL,ioos:station:DISL:PPTA:1,2017-09-02T02:30:00Z,30.2791,-87.5561,1.34,11.16,1111122 
DISL,ioos:station:DISL:PPTA:1,2017-09-02T03:00:00Z,30.2791,-87.5561,1.326,11.32,1111122 
DISL,ioos:station:DISL:PPTA:1,2017-09-02T03:30:00Z,30.2791,-87.5561,1.328,11.61,1111122 
DISL,ioos:station:DISL:PPTA:1,2017-09-02T04:00:00Z,30.2791,-87.5561,1.326,11.0,1111122 
DISL,ioos:station:DISL:PPTA:1,2017-09-02T04:30:00Z,30.2791,-87.5561,1.313,10.95,1111122 
DISL,ioos:station:DISL:PPTA:1,2017-09-02T05:00:00Z,30.2791,-87.5561,1.363,12.11,1111122 
DISL,ioos:station:DISL:PPTA:1,2017-09-02T05:30:00Z,30.2791,-87.5561,1.38,11.07,1111122 
DISL,ioos:station:DISL:PPTA:1,2017-09-02T06:00:00Z,30.2791,-87.5561,1.366,11.82,1111122 
DISL,ioos:station:DISL:PPTA:1,2017-09-02T06:30:00Z,30.2791,-87.5561,1.352,13.03,1111122 
DISL,ioos:station:DISL:PPTA:1,2017-09-02T07:00:00Z,30.2791,-87.5561,1.363,14.11,1111122 
DISL,ioos:station:DISL:PPTA:1,2017-09-02T07:30:00Z,30.2791,-87.5561,1.36,22.28,1111122 
DISL,ioos:station:DISL:PPTA:1,2017-09-02T08:00:00Z,30.2791,-87.5561,1.361,25.85,1111122 
DISL,ioos:station:DISL:PPTA:1,2017-09-02T08:30:00Z,30.2791,-87.5561,1.39,26.55,1111122 
DISL,ioos:station:DISL:PPTA:1,2017-09-02T09:00:00Z,30.2791,-87.5561,1.395,27.36,1111122 
DISL,ioos:station:DISL:PPTA:1,2017-09-02T09:30:00Z,30.2791,-87.5561,1.412,26.96,1111122 
DISL,ioos:station:DISL:PPTA:1,2017-09-02T10:00:00Z,30.2791,-87.5561,1.405,27.51,1111122 
DISL,ioos:station:DISL:PPTA:1,2017-09-02T10:30:00Z,30.2791,-87.5561,1.427,27.02,1111122 
DISL,ioos:station:DISL:PPTA:1,2017-09-02T11:00:00Z,30.2791,-87.5561,1.449,26.57,1111122 
DISL,ioos:station:DISL:PPTA:1,2017-09-02T11:30:00Z,30.2791,-87.5561,1.468,26.99,1111122 
DISL,ioos:station:DISL:PPTA:1,2017-09-02T12:00:00Z,30.2791,-87.5561,1.464,26.15,1111122 
DISL,ioos:station:DISL:PPTA:1,2017-09-02T12:30:00Z,30.2791,-87.5561,1.503,26.64,1111122 
DISL,ioos:station:DISL:PPTA:1,2017-09-02T13:00:00Z,30.2791,-87.5561,1.463,26.44,1111122 
DISL,ioos:station:DISL:PPTA:1,2017-09-02T13:30:00Z,30.2791,-87.5561,1.464,26.68,1111122 
DISL,ioos:station:DISL:PPTA:1,2017-09-02T14:00:00Z,30.2791,-87.5561,1.448,26.54,1111122 
DISL,ioos:station:DISL:PPTA:1,2017-09-02T14:30:00Z,30.2791,-87.5561,1.449,25.63,1111122 
DISL,ioos:station:DISL:PPTA:1,2017-09-02T15:00:00Z,30.2791,-87.5561,1.455,23.24,1111122 
DISL,ioos:station:DISL:PPTA:1,2017-09-02T15:30:00Z,30.2791,-87.5561,1.447,26.16,1111122 
DISL,ioos:station:DISL:PPTA:1,2017-09-02T16:00:00Z,30.2791,-87.5561,1.433,22.35,1111122 
DISL,ioos:station:DISL:PPTA:1,2017-09-02T16:30:00Z,30.2791,-87.5561,1.404,22.65,1111122 
DISL,ioos:station:DISL:PPTA:1,2017-09-02T17:00:00Z,30.2791,-87.5561,1.404,18.48,1111122 
DISL,ioos:station:DISL:PPTA:1,2017-09-02T17:30:00Z,30.2791,-87.5561,1.365,22.76,1111122 
DISL,ioos:station:DISL:PPTA:1,2017-09-02T18:00:00Z,30.2791,-87.5561,1.364,17.23,1111122 
DISL,ioos:station:DISL:PPTA:1,2017-09-02T18:30:00Z,30.2791,-87.5561,1.364,16.92,1111122 
DISL,ioos:station:DISL:PPTA:1,2017-09-02T19:00:00Z,30.2791,-87.5561,1.354,15.96,1111122 
DISL,ioos:station:DISL:PPTA:1,2017-09-02T19:30:00Z,30.2791,-87.5561,1.346,14.35,1111122 
DISL,ioos:station:DISL:PPTA:1,2017-09-02T20:00:00Z,30.2791,-87.5561,1.31,14.5,1111122 
DISL,ioos:station:DISL:PPTA:1,2017-09-02T20:30:00Z,30.2791,-87.5561,1.298,14.07,1111122 
DISL,ioos:station:DISL:PPTA:1,2017-09-02T21:00:00Z,30.2791,-87.5561,1.294,14.84,1111122 
DISL,ioos:station:DISL:PPTA:1,2017-09-02T21:30:00Z,30.2791,-87.5561,1.28,15.08,1111122 
DISL,ioos:station:DISL:PPTA:1,2017-09-02T22:00:00Z,30.2791,-87.5561,1.271,13.79,1111122 
DISL,ioos:station:DISL:PPTA:1,2017-09-02T22:30:00Z,30.2791,-87.5561,1.267,14.11,1111122 
DISL,ioos:station:DISL:PPTA:1,2017-09-02T23:00:00Z,30.2791,-87.5561,1.277,14.63,1111122 
DISL,ioos:station:DISL:PPTA:1,2017-09-02T23:30:00Z,30.2791,-87.5561,1.281,12.95,1111122 
DISL,ioos:station:DISL:PPTA:1,2017-09-03T00:00:00Z,30.2791,-87.5561,1.271,12.75,1111122 
DISL,ioos:station:DISL:PPTA:1,2017-09-03T00:30:00Z,30.2791,-87.5561,1.281,13.72,1111122 
DISL,ioos:station:DISL:PPTA:1,2017-09-03T01:00:00Z,30.2791,-87.5561,1.281,10.78,1111122 
DISL,ioos:station:DISL:PPTA:1,2017-09-03T01:30:00Z,30.2791,-87.5561,1.268,12.74,1111122 
DISL,ioos:station:DISL:PPTA:1,2017-09-03T02:00:00Z,30.2791,-87.5561,1.28,9.82,1111122 
DISL,ioos:station:DISL:PPTA:1,2017-09-03T02:30:00Z,30.2791,-87.5561,1.283,12.03,1111122 
DISL,ioos:station:DISL:PPTA:1,2017-09-03T03:00:00Z,30.2791,-87.5561,1.287,12.61,1111122 
DISL,ioos:station:DISL:PPTA:1,2017-09-03T03:30:00Z,30.2791,-87.5561,1.293,12.27,1111122 
DISL,ioos:station:DISL:PPTA:1,2017-09-03T04:00:00Z,30.2791,-87.5561,1.304,12.46,1111122 
DISL,ioos:station:DISL:PPTA:1,2017-09-03T04:30:00Z,30.2791,-87.5561,1.29,11.24,1111122 
DISL,ioos:station:DISL:PPTA:1,2017-09-03T05:00:00Z,30.2791,-87.5561,1.306,16.56,1111122 
DISL,ioos:station:DISL:PPTA:1,2017-09-03T05:30:00Z,30.2791,-87.5561,1.298,17.29,1111122 
DISL,ioos:station:DISL:PPTA:1,2017-09-03T06:00:00Z,30.2791,-87.5561,1.288,22.45,1111122 
DISL,ioos:station:DISL:PPTA:1,2017-09-03T06:30:00Z,30.2791,-87.5561,1.292,23.63,1111122 
DISL,ioos:station:DISL:PPTA:1,2017-09-03T07:00:00Z,30.2791,-87.5561,1.304,25.95,1111122 
DISL,ioos:station:DISL:PPTA:1,2017-09-03T07:30:00Z,30.2791,-87.5561,1.312,25.65,1111122 
DISL,ioos:station:DISL:PPTA:1,2017-09-03T08:00:00Z,30.2791,-87.5561,1.345,26.24,1111122 
DISL,ioos:station:DISL:PPTA:1,2017-09-03T08:30:00Z,30.2791,-87.5561,1.389,26.53,1111122 
DISL,ioos:station:DISL:PPTA:1,2017-09-03T09:00:00Z,30.2791,-87.5561,1.395,25.93,1111122 
DISL,ioos:station:DISL:PPTA:1,2017-09-03T09:30:00Z,30.2791,-87.5561,1.405,25.81,1111122 
DISL,ioos:station:DISL:PPTA:1,2017-09-03T10:00:00Z,30.2791,-87.5561,1.422,25.83,1111122 
DISL,ioos:station:DISL:PPTA:1,2017-09-03T10:30:00Z,30.2791,-87.5561,1.436,25.7,1111122 
DISL,ioos:station:DISL:PPTA:1,2017-09-03T11:00:00Z,30.2791,-87.5561,1.453,25.7,1111122 
DISL,ioos:station:DISL:PPTA:1,2017-09-03T11:30:00Z,30.2791,-87.5561,1.461,26.31,1111122 
DISL,ioos:station:DISL:PPTA:1,2017-09-03T12:00:00Z,30.2791,-87.5561,1.452,26.33,1111122 
DISL,ioos:station:DISL:PPTA:1,2017-09-03T12:30:00Z,30.2791,-87.5561,1.468,26.71,1111122 
DISL,ioos:station:DISL:PPTA:1,2017-09-03T13:00:00Z,30.2791,-87.5561,1.48,25.77,1111122 
DISL,ioos:station:DISL:PPTA:1,2017-09-03T13:30:00Z,30.2791,-87.5561,1.481,26.67,1111122 
DISL,ioos:station:DISL:PPTA:1,2017-09-03T14:00:00Z,30.2791,-87.5561,1.489,26.62,1111122 
DISL,ioos:station:DISL:PPTA:1,2017-09-03T14:30:00Z,30.2791,-87.5561,1.483,25.9,1111122 
DISL,ioos:station:DISL:PPTA:1,2017-09-03T15:00:00Z,30.2791,-87.5561,1.479,26.02,1111122 
DISL,ioos:station:DISL:PPTA:1,2017-09-03T15:30:00Z,30.2791,-87.5561,1.463,25.67,1111122 
DISL,ioos:station:DISL:PPTA:1,2017-09-03T16:00:00Z,30.2791,-87.5561,1.452,25.3,1111122 
DISL,ioos:station:DISL:PPTA:1,2017-09-03T16:30:00Z,30.2791,-87.5561,1.432,23.02,1111122 
DISL,ioos:station:DISL:PPTA:1,2017-09-03T17:00:00Z,30.2791,-87.5561,1.434,20.82,1111122 
DISL,ioos:station:DISL:PPTA:1,2017-09-03T17:30:00Z,30.2791,-87.5561,1.406,22.76,1111122 
DISL,ioos:station:DISL:PPTA:1,2017-09-03T18:00:00Z,30.2791,-87.5561,1.406,21.51,1111122 
DISL,ioos:station:DISL:PPTA:1,2017-09-03T18:30:00Z,30.2791,-87.5561,1.396,17.26,1111122 
DISL,ioos:station:DISL:PPTA:1,2017-09-03T19:00:00Z,30.2791,-87.5561,1.364,23.51,1111122 
DISL,ioos:station:DISL:PPTA:1,2017-09-03T19:30:00Z,30.2791,-87.5561,1.358,17.17,1111122 
DISL,ioos:station:DISL:PPTA:1,2017-09-03T20:00:00Z,30.2791,-87.5561,1.329,18.19,1111122 
DISL,ioos:station:DISL:PPTA:1,2017-09-03T20:30:00Z,30.2791,-87.5561,1.322,15.13,1111122 
DISL,ioos:station:DISL:PPTA:1,2017-09-03T21:00:00Z,30.2791,-87.5561,1.312,16.75,1111122 
DISL,ioos:station:DISL:PPTA:1,2017-09-03T21:30:00Z,30.2791,-87.5561,1.293,19.04,1111122 
DISL,ioos:station:DISL:PPTA:1,2017-09-03T22:00:00Z,30.2791,-87.5561,1.299,15.44,1111122 
DISL,ioos:station:DISL:PPTA:1,2017-09-03T22:30:00Z,30.2791,-87.5561,1.299,12.65,1111122 
DISL,ioos:station:DISL:PPTA:1,2017-09-03T23:00:00Z,30.2791,-87.5561,1.293,12.68,1111122 
DISL,ioos:station:DISL:PPTA:1,2017-09-03T23:30:00Z,30.2791,-87.5561,1.267,12.02,1111122 
DISL,ioos:station:DISL:PPTA:1,2017-09-04T00:00:00Z,30.2791,-87.5561,1.27,11.62,1111122 
DISL,ioos:station:DISL:PPTA:1,2017-09-04T00:30:00Z,30.2791,-87.5561,1.282,13.66,1111122 
DISL,ioos:station:DISL:PPTA:1,2017-09-04T01:00:00Z,30.2791,-87.5561,1.276,12.09,1111122 
DISL,ioos:station:DISL:PPTA:1,2017-09-04T01:30:00Z,30.2791,-87.5561,1.283,10.36,1111122 
DISL,ioos:station:DISL:PPTA:1,2017-09-04T02:00:00Z,30.2791,-87.5561,1.288,9.82,1111122 
DISL,ioos:station:DISL:PPTA:1,2017-09-04T02:30:00Z,30.2791,-87.5561,1.293,10.76,1111122 
DISL,ioos:station:DISL:PPTA:1,2017-09-04T03:00:00Z,30.2791,-87.5561,1.294,11.41,1111122 
DISL,ioos:station:DISL:PPTA:1,2017-09-04T03:30:00Z,30.2791,-87.5561,1.293,12.85,1111122 
DISL,ioos:station:DISL:PPTA:1,2017-09-04T04:00:00Z,30.2791,-87.5561,1.285,9.09,1111122 
DISL,ioos:station:DISL:PPTA:1,2017-09-04T04:30:00Z,30.2791,-87.5561,1.288,13.17,1111122 
DISL,ioos:station:DISL:PPTA:1,2017-09-04T05:00:00Z,30.2791,-87.5561,1.287,12.46,1111122 
DISL,ioos:station:DISL:PPTA:1,2017-09-04T05:30:00Z,30.2791,-87.5561,1.285,11.8,1111122 
DISL,ioos:station:DISL:PPTA:1,2017-09-04T06:00:00Z,30.2791,-87.5561,1.287,17.18,1111122 
DISL,ioos:station:DISL:PPTA:1,2017-09-04T06:30:00Z,30.2791,-87.5561,1.29,18.32,1111122 
DISL,ioos:station:DISL:PPTA:1,2017-09-04T07:00:00Z,30.2791,-87.5561,1.307,23.34,1111122 
DISL,ioos:station:DISL:PPTA:1,2017-09-04T07:30:00Z,30.2791,-87.5561,1.316,24.09,1111122 
DISL,ioos:station:DISL:PPTA:1,2017-09-04T08:00:00Z,30.2791,-87.5561,1.337,24.15,1111122 
DISL,ioos:station:DISL:PPTA:1,2017-09-04T08:30:00Z,30.2791,-87.5561,1.35,24.45,1111122 
DISL,ioos:station:DISL:PPTA:1,2017-09-04T09:00:00Z,30.2791,-87.5561,1.37,24.12,1111122 
DISL,ioos:station:DISL:PPTA:1,2017-09-04T09:30:00Z,30.2791,-87.5561,1.381,24.3,1111122 
DISL,ioos:station:DISL:PPTA:1,2017-09-04T10:00:00Z,30.2791,-87.5561,1.401,24.43,1111122 
DISL,ioos:station:DISL:PPTA:1,2017-09-04T10:30:00Z,30.2791,-87.5561,1.422,25.54,1111122 
DISL,ioos:station:DISL:PPTA:1,2017-09-04T11:00:00Z,30.2791,-87.5561,1.439,24.31,1111122 
DISL,ioos:station:DISL:PPTA:1,2017-09-04T11:30:00Z,30.2791,-87.5561,1.464,24.26,1111122 
DISL,ioos:station:DISL:PPTA:1,2017-09-04T12:00:00Z,30.2791,-87.5561,1.484,24.6,1111122 
DISL,ioos:station:DISL:PPTA:1,2017-09-04T12:30:00Z,30.2791,-87.5561,1.483,24.95,1111122 
DISL,ioos:station:DISL:PPTA:1,2017-09-04T13:00:00Z,30.2791,-87.5561,1.489,24.29,1111122 
DISL,ioos:station:DISL:PPTA:1,2017-09-04T13:30:00Z,30.2791,-87.5561,1.502,24.89,1111122 
DISL,ioos:station:DISL:PPTA:1,2017-09-04T14:00:00Z,30.2791,-87.5561,1.503,25.2,1111122 
DISL,ioos:station:DISL:PPTA:1,2017-09-04T14:30:00Z,30.2791,-87.5561,1.515,25.62,1111122 
DISL,ioos:station:DISL:PPTA:1,2017-09-04T15:00:00Z,30.2791,-87.5561,1.524,24.94,1111122 
DISL,ioos:station:DISL:PPTA:1,2017-09-04T15:30:00Z,30.2791,-87.5561,1.521,24.48,1111122 
DISL,ioos:station:DISL:PPTA:1,2017-09-04T16:00:00Z,30.2791,-87.5561,1.519,24.34,1111122 
DISL,ioos:station:DISL:PPTA:1,2017-09-04T16:30:00Z,30.2791,-87.5561,1.499,24.65,1111122 
DISL,ioos:station:DISL:PPTA:1,2017-09-04T17:00:00Z,30.2791,-87.5561,1.482,25.05,1111122 
DISL,ioos:station:DISL:PPTA:1,2017-09-04T17:30:00Z,30.2791,-87.5561,1.463,24.48,1111122 
DISL,ioos:station:DISL:PPTA:1,2017-09-04T18:00:00Z,30.2791,-87.5561,1.458,22.51,1111122 
DISL,ioos:station:DISL:PPTA:1,2017-09-04T18:30:00Z,30.2791,-87.5561,1.42,22.36,1111122 
DISL,ioos:station:DISL:PPTA:1,2017-09-04T19:00:00Z,30.2791,-87.5561,1.412,23.9,1111122 
DISL,ioos:station:DISL:PPTA:1,2017-09-04T19:30:00Z,30.2791,-87.5561,1.412,18.79,1111122 
DISL,ioos:station:DISL:PPTA:1,2017-09-04T20:00:00Z,30.2791,-87.5561,1.398,17.6,1111122 
DISL,ioos:station:DISL:PPTA:1,2017-09-04T20:30:00Z,30.2791,-87.5561,1.375,17.43,1111122 
DISL,ioos:station:DISL:PPTA:1,2017-09-04T21:00:00Z,30.2791,-87.5561,1.358,16.09,1111122 
DISL,ioos:station:DISL:PPTA:1,2017-09-04T21:30:00Z,30.2791,-87.5561,1.349,15.32,1111122 
DISL,ioos:station:DISL:PPTA:1,2017-09-04T22:00:00Z,30.2791,-87.5561,1.329,18.61,1111122 
DISL,ioos:station:DISL:PPTA:1,2017-09-04T22:30:00Z,30.2791,-87.5561,1.338,14.47,1111122 
DISL,ioos:station:DISL:PPTA:1,2017-09-04T23:00:00Z,30.2791,-87.5561,1.328,13.65,1111122 
DISL,ioos:station:DISL:PPTA:1,2017-09-04T23:30:00Z,30.2791,-87.5561,1.329,12.77,1111122 
DISL,ioos:station:DISL:PPTA:1,2017-09-05T00:00:00Z,30.2791,-87.5561,1.318,12.76,1111122 
DISL,ioos:station:DISL:PPTA:1,2017-09-05T00:30:00Z,30.2791,-87.5561,1.315,12.18,1111122 
DISL,ioos:station:DISL:PPTA:1,2017-09-05T01:00:00Z,30.2791,-87.5561,1.309,11.66,1111122 
DISL,ioos:station:DISL:PPTA:1,2017-09-05T01:30:00Z,30.2791,-87.5561,1.316,10.97,1111122 
DISL,ioos:station:DISL:PPTA:1,2017-09-05T02:00:00Z,30.2791,-87.5561,1.311,11.04,1111122 
DISL,ioos:station:DISL:PPTA:1,2017-09-05T02:30:00Z,30.2791,-87.5561,1.318,13.19,1111122 
DISL,ioos:station:DISL:PPTA:1,2017-09-05T03:00:00Z,30.2791,-87.5561,1.31,12.88,1111122 
DISL,ioos:station:DISL:PPTA:1,2017-09-05T03:30:00Z,30.2791,-87.5561,1.301,12.55,1111122 
DISL,ioos:station:DISL:PPTA:1,2017-09-05T04:00:00Z,30.2791,-87.5561,1.309,12.34,1111122 
DISL,ioos:station:DISL:PPTA:1,2017-09-05T04:30:00Z,30.2791,-87.5561,1.311,13.14,1111122 
DISL,ioos:station:DISL:PPTA:1,2017-09-05T05:00:00Z,30.2791,-87.5561,1.307,12.84,1111122 
DISL,ioos:station:DISL:PPTA:1,2017-09-05T05:30:00Z,30.2791,-87.5561,1.297,12.55,1111122 
DISL,ioos:station:DISL:PPTA:1,2017-09-05T06:00:00Z,30.2791,-87.5561,1.304,13.5,1111122 
DISL,ioos:station:DISL:PPTA:1,2017-09-05T06:30:00Z,30.2791,-87.5561,1.3,14.61,1111122 
DISL,ioos:station:DISL:PPTA:1,2017-09-05T07:00:00Z,30.2791,-87.5561,1.304,18.97,1111122 
DISL,ioos:station:DISL:PPTA:1,2017-09-05T07:30:00Z,30.2791,-87.5561,1.312,22.06,1111122 
DISL,ioos:station:DISL:PPTA:1,2017-09-05T08:00:00Z,30.2791,-87.5561,1.306,23.4,1111122 
DISL,ioos:station:DISL:PPTA:1,2017-09-05T08:30:00Z,30.2791,-87.5561,1.341,24.22,1111122 
DISL,ioos:station:DISL:PPTA:1,2017-09-05T09:00:00Z,30.2791,-87.5561,1.338,24.3,1111122 
DISL,ioos:station:DISL:PPTA:1,2017-09-05T09:30:00Z,30.2791,-87.5561,1.362,24.26,1111122 
DISL,ioos:station:DISL:PPTA:1,2017-09-05T10:00:00Z,30.2791,-87.5561,1.388,24.24,1111122 
DISL,ioos:station:DISL:PPTA:1,2017-09-05T10:30:00Z,30.2791,-87.5561,1.391,24.76,1111122 
DISL,ioos:station:DISL:PPTA:1,2017-09-05T11:00:00Z,30.2791,-87.5561,1.421,24.19,1111122 
DISL,ioos:station:DISL:PPTA:1,2017-09-05T11:30:00Z,30.2791,-87.5561,1.438,24.14,1111122 
DISL,ioos:station:DISL:PPTA:1,2017-09-05T12:00:00Z,30.2791,-87.5561,1.446,23.56,1111122 
DISL,ioos:station:DISL:PPTA:1,2017-09-05T12:30:00Z,30.2791,-87.5561,1.465,24.13,1111122 
DISL,ioos:station:DISL:PPTA:1,2017-09-05T13:00:00Z,30.2791,-87.5561,1.474,25.65,1111122 
DISL,ioos:station:DISL:PPTA:1,2017-09-05T13:30:00Z,30.2791,-87.5561,1.483,25.52,1111122 
DISL,ioos:station:DISL:PPTA:1,2017-09-05T14:00:00Z,30.2791,-87.5561,1.489,25.19,1111122 
DISL,ioos:station:DISL:PPTA:1,2017-09-05T14:30:00Z,30.2791,-87.5561,1.497,25.85,1111122 
DISL,ioos:station:DISL:PPTA:1,2017-09-05T15:00:00Z,30.2791,-87.5561,1.516,25.13,1111122 
DISL,ioos:station:DISL:PPTA:1,2017-09-05T15:30:00Z,30.2791,-87.5561,1.527,25.46,1111122 
DISL,ioos:station:DISL:PPTA:1,2017-09-05T16:00:00Z,30.2791,-87.5561,1.519,25.35,1111122 
DISL,ioos:station:DISL:PPTA:1,2017-09-05T16:30:00Z,30.2791,-87.5561,1.537,25.72,1111122 
DISL,ioos:station:DISL:PPTA:1,2017-09-05T17:00:00Z,30.2791,-87.5561,1.524,25.5,1111122 
DISL,ioos:station:DISL:PPTA:1,2017-09-05T17:30:00Z,30.2791,-87.5561,1.491,25.18,1111122 
DISL,ioos:station:DISL:PPTA:1,2017-09-05T18:00:00Z,30.2791,-87.5561,1.476,26.07,1111122 
DISL,ioos:station:DISL:PPTA:1,2017-09-05T18:30:00Z,30.2791,-87.5561,1.467,25.09,1111122 
DISL,ioos:station:DISL:PPTA:1,2017-09-05T19:00:00Z,30.2791,-87.5561,1.458,22.29,1111122 
DISL,ioos:station:DISL:PPTA:1,2017-09-05T19:30:00Z,30.2791,-87.5561,1.446,22.45,1111122 
DISL,ioos:station:DISL:PPTA:1,2017-09-05T20:00:00Z,30.2791,-87.5561,1.437,23.88,1111122 
DISL,ioos:station:DISL:PPTA:1,2017-09-05T20:30:00Z,30.2791,-87.5561,1.433,16.48,1111122 
DISL,ioos:station:DISL:PPTA:1,2017-09-05T21:00:00Z,30.2791,-87.5561,1.402,18.07,1111122 
DISL,ioos:station:DISL:PPTA:1,2017-09-05T21:30:00Z,30.2791,-87.5561,1.402,17.58,1111122 
DISL,ioos:station:DISL:PPTA:1,2017-09-05T22:00:00Z,30.2791,-87.5561,1.4,16.12,1111122 
DISL,ioos:station:DISL:PPTA:1,2017-09-05T22:30:00Z,30.2791,-87.5561,1.369,16.84,1111122 
DISL,ioos:station:DISL:PPTA:1,2017-09-05T23:00:00Z,30.2791,-87.5561,1.372,16.19,1111122 
DISL,ioos:station:DISL:PPTA:1,2017-09-05T23:30:00Z,30.2791,-87.5561,1.378,18.46,1111122 
DISL,ioos:station:DISL:PPTA:1,2017-09-06T00:00:00Z,30.2791,-87.5561,1.374,18.65,1111122 
DISL,ioos:station:DISL:PPTA:1,2017-09-06T00:30:00Z,30.2791,-87.5561,1.356,18.41,1111122 
DISL,ioos:station:DISL:PPTA:1,2017-09-06T01:00:00Z,30.2791,-87.5561,1.366,18.29,1111122 
DISL,ioos:station:DISL:PPTA:1,2017-09-06T01:30:00Z,30.2791,-87.5561,1.364,19.57,1111122 
DISL,ioos:station:DISL:PPTA:1,2017-09-06T02:00:00Z,30.2791,-87.5561,1.352,16.09,1111122 
DISL,ioos:station:DISL:PPTA:1,2017-09-06T02:30:00Z,30.2791,-87.5561,1.354,18.69,1111122 
DISL,ioos:station:DISL:PPTA:1,2017-09-06T03:00:00Z,30.2791,-87.5561,1.348,14.45,1111122 
DISL,ioos:station:DISL:PPTA:1,2017-09-06T03:30:00Z,30.2791,-87.5561,1.336,16.69,1111122 
DISL,ioos:station:DISL:PPTA:1,2017-09-06T04:00:00Z,30.2791,-87.5561,1.334,14.3,1111122 
DISL,ioos:station:DISL:PPTA:1,2017-09-06T04:30:00Z,30.2791,-87.5561,1.343,13.21,1111122 
DISL,ioos:station:DISL:PPTA:1,2017-09-06T05:00:00Z,30.2791,-87.5561,1.338,13.04,1111122 
DISL,ioos:station:DISL:PPTA:1,2017-09-06T05:30:00Z,30.2791,-87.5561,1.344,12.37,1111122 
DISL,ioos:station:DISL:PPTA:1,2017-09-06T06:00:00Z,30.2791,-87.5561,1.331,13.21,1111122 
DISL,ioos:station:DISL:PPTA:1,2017-09-06T06:30:00Z,30.2791,-87.5561,1.343,12.79,1111122 
DISL,ioos:station:DISL:PPTA:1,2017-09-06T07:00:00Z,30.2791,-87.5561,1.341,13.21,1111122 
DISL,ioos:station:DISL:PPTA:1,2017-09-06T07:30:00Z,30.2791,-87.5561,1.365,12.82,1111122 
DISL,ioos:station:DISL:PPTA:1,2017-09-06T08:00:00Z,30.2791,-87.5561,1.372,13.64,1111122 
DISL,ioos:station:DISL:PPTA:1,2017-09-06T08:30:00Z,30.2791,-87.5561,1.359,19.92,1111122 
DISL,ioos:station:DISL:PPTA:1,2017-09-06T09:00:00Z,30.2791,-87.5561,1.346,21.38,1111122 
DISL,ioos:station:DISL:PPTA:1,2017-09-06T09:30:00Z,30.2791,-87.5561,1.383,21.74,1111122 
DISL,ioos:station:DISL:PPTA:1,2017-09-06T10:00:00Z,30.2791,-87.5561,1.358,23.38,1111122 
DISL,ioos:station:DISL:PPTA:1,2017-09-06T10:30:00Z,30.2791,-87.5561,1.4,23.59,1111122 
DISL,ioos:station:DISL:PPTA:1,2017-09-06T11:00:00Z,30.2791,-87.5561,1.425,23.82,1111122 
DISL,ioos:station:DISL:PPTA:1,2017-09-06T11:30:00Z,30.2791,-87.5561,1.419,23.4,1111122 
DISL,ioos:station:DISL:PPTA:1,2017-09-06T12:00:00Z,30.2791,-87.5561,1.441,23.4,1111122 
DISL,ioos:station:DISL:PPTA:1,2017-09-06T12:30:00Z,30.2791,-87.5561,1.458,24.08,1111122 
DISL,ioos:station:DISL:PPTA:1,2017-09-06T13:00:00Z,30.2791,-87.5561,1.48,25.31,1111122 
DISL,ioos:station:DISL:PPTA:1,2017-09-06T13:30:00Z,30.2791,-87.5561,1.498,25.39,1111122 
DISL,ioos:station:DISL:PPTA:1,2017-09-06T14:00:00Z,30.2791,-87.5561,1.476,25.09,1111122 